NORTHERN NASSAU  -  Heat Advisory Heat Advisory        NORTHERN QUEENS  -  Heat Advisory Heat Advisory        SOUTHERN NASSAU  -  Heat Advisory Heat Advisory        SOUTHERN QUEENS  -  Heat Advisory Heat Advisory      

Active alerts

Northern Queens
  Details for Northern Queens Heat Advisory
Southern Queens
  Details for Southern Queens Heat Advisory
Northern Nassau
  Details for Northern Nassau Heat Advisory
Southern Nassau
  Details for Southern Nassau Heat Advisory


WXM80 ListenWXM80 Stop

You find our weather info also at:

UK Metoffice

WeatherCloud

Weather Underground

Northeastern Weather Network

AWEKAS

Citizen Weather Observer Program (CWOP)

HAMweather, WeatherForYou, PWS Weather


Weather Underground History page Text

Daily Summary for January 11, 2018 Units:  English    Metric   Both
« Previous Day
Next Day »
Daily Weekly Monthly Yearly Custom
  High: Low: Average:
Temperature: TemperatureF °F 33.0 °F 38.6 °F
Dew Point: DewpointF °F 30.7 °F 36 °F
Humidity: Humidity % 81 % 90 %
Wind Speed: WindSpeedMPH mph 0.0 mph 0.2 mph
Wind Gust: WindSpeedGustMPH mph - -
Wind:- - West
Pressure: PressureIn in 29.97 in -
Precipitation: 0.00 in    
Historical Graphs
 
 
Tabular Data for January 11, 2018
Time Temperature Dew Point Pressure Wind Wind Speed Wind Gust Humidity Rainfall Rate (Hourly)
TemperatureF °F DewpointF °F PressureIn in Calm     Humidity % HourlyPrecipIn in
00:07 37.5 °F 34.6 °F 30.41 in Calm     89 % 0.00 in
00:16 37.5 °F 34.8 °F 30.15 in Calm     90 % 0.00 in
00:22 37.5 °F 34.8 °F 30.40 in Calm     90 % 0.00 in
00:27 37.5 °F 34.8 °F 30.40 in Calm     90 % 0.00 in
00:33 37.4 °F 34.7 °F 30.40 in Calm     90 % 0.00 in
00:38 37.4 °F 34.7 °F 30.40 in Calm     90 % 0.00 in
00:46 37.2 °F 34.5 °F 30.14 in Calm     90 % 0.00 in
00:51 37.1 °F 34.4 °F 30.39 in Calm     90 % 0.00 in
00:59 36.9 °F 34.0 °F 30.15 in WSW 1.9 mph 3.5 mph 89 % 0.00 in
01:07 36.6 °F 33.9 °F 30.40 in Calm     90 % 0.00 in
01:12 36.5 °F 33.8 °F 30.40 in Calm     90 % 0.00 in
01:18 36.3 °F 33.6 °F 30.40 in Calm     90 % 0.00 in
01:29 36.0 °F 33.4 °F 30.15 in Calm     90 % 0.00 in
01:34 35.9 °F 33.3 °F 30.40 in Calm     90 % 0.00 in
01:39 35.7 °F 33.1 °F 30.16 in Calm     90 % 0.00 in
01:56 35.3 °F 32.4 °F 30.40 in Calm     89 % 0.00 in
02:02 35.1 °F 32.5 °F 30.40 in Calm     90 % 0.00 in
02:07 35.0 °F 32.4 °F 30.40 in Calm     90 % 0.00 in
02:15 34.8 °F 32.2 °F 30.39 in Calm     90 % 0.00 in
02:21 34.8 °F 32.2 °F 30.40 in Calm     90 % 0.00 in
02:27 34.7 °F 32.1 °F 30.39 in Calm     90 % 0.00 in
02:32 34.6 °F 32.0 °F 30.15 in Calm     90 % 0.00 in
02:39 34.6 °F 32.0 °F 30.39 in Calm     90 % 0.00 in
02:46 34.4 °F 31.8 °F 30.39 in Calm     90 % 0.00 in
02:54 34.2 °F 31.6 °F 30.39 in Calm     90 % 0.00 in
03:00 34.1 °F 31.5 °F 30.39 in Calm     90 % 0.00 in
03:06 33.9 °F 31.3 °F 30.38 in Calm     90 % 0.00 in
03:12 33.7 °F 31.1 °F 30.38 in Calm     90 % 0.00 in
03:25 33.4 °F 30.8 °F 30.13 in Calm     90 % 0.00 in
03:37 33.2 °F 30.9 °F 30.13 in Calm     91 % 0.00 in
03:47 33.1 °F 30.8 °F 30.38 in Calm     91 % 0.00 in
03:53 33.0 °F 30.7 °F 30.38 in Calm     91 % 0.00 in
04:16 33.2 °F 31.1 °F 30.38 in Calm     92 % 0.00 in
04:21 33.3 °F 31.2 °F 30.38 in Calm     92 % 0.00 in
04:26 33.3 °F 31.2 °F 30.38 in Calm     92 % 0.00 in
04:33 33.4 °F 31.3 °F 30.13 in Calm     92 % 0.00 in
04:38 33.4 °F 31.3 °F 30.38 in Calm     92 % 0.00 in
04:45 33.4 °F 31.6 °F 30.38 in Calm     93 % 0.00 in
04:50 33.5 °F 31.7 °F 30.38 in Calm     93 % 0.00 in
04:56 33.6 °F 31.8 °F 30.38 in Calm     93 % 0.00 in
05:07 33.6 °F 31.8 °F 30.38 in Calm     93 % 0.00 in
05:20 33.8 °F 32.0 °F 30.38 in Calm     93 % 0.00 in
05:25 33.8 °F 32.0 °F 30.39 in Calm     93 % 0.00 in
05:30 33.9 °F 32.1 °F 30.39 in Calm     93 % 0.00 in
05:39 33.9 °F 32.1 °F 30.39 in Calm     93 % 0.00 in
05:44 33.9 °F 32.1 °F 30.39 in Calm     93 % 0.00 in
05:48 34.0 °F 32.2 °F 30.39 in Calm     93 % 0.00 in
06:04 34.1 °F 32.3 °F 30.39 in Calm     93 % 0.00 in
06:09 34.2 °F 32.7 °F 30.39 in Calm     94 % 0.00 in
06:14 34.3 °F 32.8 °F 30.39 in Calm     94 % 0.00 in
06:23 34.4 °F 32.9 °F 30.39 in Calm     94 % 0.00 in
06:40 34.6 °F 33.1 °F 30.39 in Calm     94 % 0.00 in
06:46 34.7 °F 33.2 °F 30.39 in Calm     94 % 0.00 in
07:09 35.2 °F 33.6 °F 30.13 in Calm     94 % 0.00 in
07:17 35.3 °F 33.7 °F 30.39 in Calm     94 % 0.00 in
07:23 35.4 °F 33.8 °F 30.39 in Calm     94 % 0.00 in
07:28 35.5 °F 33.9 °F 30.39 in Calm     94 % 0.00 in
07:34 35.5 °F 33.9 °F 30.39 in Calm     94 % 0.00 in
07:39 35.6 °F 34.0 °F 30.38 in Calm     94 % 0.00 in
07:44 35.7 °F 34.1 °F 30.38 in Calm     94 % 0.00 in
07:49 35.8 °F 34.2 °F 30.39 in Calm     94 % 0.00 in
07:54 35.9 °F 34.3 °F 30.39 in Calm   1.2 mph 94 % 0.00 in
08:09 36.4 °F 34.8 °F 30.39 in Calm     94 % 0.00 in
08:14 36.5 °F 34.9 °F 30.39 in Calm     94 % 0.00 in
08:30 37.2 °F 35.6 °F 30.40 in Calm     94 % 0.00 in
08:36 37.4 °F 35.8 °F 30.40 in Calm     94 % 0.00 in
08:41 37.8 °F 36.5 °F 30.40 in Calm     95 % 0.00 in
08:47 38.1 °F 36.5 °F 30.40 in Calm     94 % 0.00 in
08:52 38.5 °F 36.9 °F 30.41 in Calm     94 % 0.00 in
08:57 38.7 °F 37.1 °F 30.42 in Calm     94 % 0.00 in
09:07 39.3 °F 37.7 °F 30.17 in North 0.4 mph 3.5 mph 94 % 0.00 in
09:15 39.2 °F 37.1 °F 30.17 in North 1.2 mph 2.3 mph 92 % 0.00 in
09:22 39.2 °F 36.8 °F 30.43 in Calm   1.2 mph 91 % 0.00 in
09:27 39.1 °F 36.4 °F 30.43 in Calm     90 % 0.00 in
09:32 39.1 °F 36.4 °F 30.43 in NNW 0.2 mph 1.2 mph 90 % 0.00 in
09:39 39.1 °F 36.4 °F 30.18 in NNW 0.3 mph 2.0 mph 90 % 0.00 in
09:44 39.1 °F 36.4 °F 30.18 in NNW 0.7 mph 2.3 mph 90 % 0.00 in
09:58 39.0 °F 36.0 °F 30.43 in NNW 0.3 mph 1.2 mph 89 % 0.00 in
10:03 39.0 °F 36.0 °F 30.18 in NNW 0.2 mph 1.2 mph 89 % 0.00 in
10:10 39.1 °F 36.1 °F 30.18 in Calm     89 % 0.00 in
10:16 39.0 °F 36.0 °F 30.43 in Calm     89 % 0.00 in
10:21 39.0 °F 36.0 °F 30.43 in Calm     89 % 0.00 in
10:30 39.1 °F 36.1 °F 30.17 in Calm   1.2 mph 89 % 0.00 in
10:36 39.1 °F 36.1 °F 30.42 in Calm     89 % 0.00 in
10:41 39.2 °F 36.2 °F 30.42 in Calm     89 % 0.00 in
10:46 39.3 °F 36.3 °F 30.41 in Calm     89 % 0.00 in
10:59 39.7 °F 36.7 °F 30.41 in Calm     89 % 0.00 in
11:06 39.9 °F 36.9 °F 30.41 in Calm     89 % 0.00 in
11:15 40.4 °F 37.7 °F 30.40 in Calm     90 % 0.00 in
11:20 40.7 °F 38.0 °F 30.40 in Calm     90 % 0.00 in
11:29 41.4 °F 38.7 °F 30.39 in Calm     90 % 0.00 in
11:37 42.1 °F 39.4 °F 30.39 in Calm     90 % 0.00 in
11:43 42.5 °F 39.8 °F 30.13 in Calm     90 % 0.00 in
11:52 43.5 °F 39.9 °F 30.38 in NNW 0.1 mph 1.2 mph 87 % 0.00 in
11:57 43.8 °F 39.6 °F 30.13 in Calm   1.2 mph 85 % 0.00 in
12:04 43.9 °F 39.1 °F 30.38 in Calm     83 % 0.00 in
12:09 43.9 °F 38.8 °F 30.37 in Calm   1.0 mph 82 % 0.00 in
12:17 43.8 °F 38.7 °F 30.37 in NNW 0.1 mph 2.3 mph 82 % 0.00 in
12:23 43.8 °F 38.7 °F 30.12 in Calm   1.2 mph 82 % 0.00 in
12:28 43.8 °F 38.7 °F 30.11 in NNW 0.2 mph 1.2 mph 82 % 0.00 in
12:33 43.7 °F 38.6 °F 30.36 in NNW 0.2 mph 1.2 mph 82 % 0.00 in
12:46 43.5 °F 38.1 °F 30.36 in WNW 1.2 mph 2.3 mph 81 % 0.00 in
12:54 43.4 °F 38.0 °F 30.36 in Calm   1.2 mph 81 % 0.00 in
12:59 43.4 °F 38.0 °F 30.10 in Calm   1.2 mph 81 % 0.00 in
13:04 43.2 °F 37.8 °F 30.35 in WNW 0.2 mph 2.3 mph 81 % 0.00 in
13:12 42.9 °F 37.5 °F 30.35 in Calm   1.2 mph 81 % 0.00 in
13:19 42.7 °F 37.6 °F 30.35 in NW 0.2 mph 2.3 mph 82 % 0.00 in
13:24 42.6 °F 37.5 °F 30.10 in Calm   1.2 mph 82 % 0.00 in
13:38 42.2 °F 37.4 °F 30.35 in NNW 0.7 mph 2.3 mph 83 % 0.00 in
13:46 41.9 °F 37.1 °F 30.35 in NNW 0.3 mph 1.2 mph 83 % 0.00 in
13:52 41.8 °F 37.3 °F 30.35 in Calm   1.2 mph 84 % 0.00 in
13:57 41.7 °F 37.2 °F 30.35 in Calm   1.2 mph 84 % 0.00 in
14:03 41.6 °F 37.1 °F 30.35 in NNW 0.7 mph 2.3 mph 84 % 0.00 in
14:08 41.4 °F 37.2 °F 30.35 in NNW 0.7 mph 1.2 mph 85 % 0.00 in
14:41 41.2 °F 37.3 °F 30.35 in NNW 0.2 mph 1.2 mph 86 % 0.00 in
14:46 41.3 °F 37.4 °F 30.10 in Calm   1.2 mph 86 % 0.00 in
14:51 41.2 °F 37.3 °F 30.35 in NNW 0.1 mph 1.2 mph 86 % 0.00 in
14:56 41.2 °F 37.3 °F 30.35 in NNW 1.1 mph 2.3 mph 86 % 0.00 in
15:08 40.9 °F 37.0 °F 30.35 in Calm     86 % 0.00 in
15:15 40.9 °F 37.0 °F 30.35 in Calm   2.3 mph 86 % 0.00 in
15:21 40.8 °F 36.9 °F 30.10 in Calm     86 % 0.00 in
15:27 40.8 °F 37.2 °F 30.10 in Calm     87 % 0.00 in
15:32 40.7 °F 37.1 °F 30.35 in NNW 0.4 mph 1.2 mph 87 % 0.00 in
15:37 40.6 °F 37.0 °F 30.35 in Calm     87 % 0.00 in
15:53 40.6 °F 37.0 °F 30.10 in Calm     87 % 0.00 in
15:58 40.5 °F 36.9 °F 30.36 in Calm     87 % 0.00 in
16:03 40.5 °F 37.2 °F 30.35 in Calm     88 % 0.00 in
16:08 40.5 °F 37.2 °F 30.10 in Calm     88 % 0.00 in
16:15 40.6 °F 37.3 °F 30.35 in Calm     88 % 0.00 in
16:23 40.6 °F 37.3 °F 30.35 in Calm     88 % 0.00 in
16:30 40.6 °F 37.3 °F 30.10 in Calm     88 % 0.00 in
16:33 40.6 °F 37.3 °F 30.10 in Calm     88 % 0.00 in
16:39 40.5 °F 37.2 °F 30.10 in Calm     88 % 0.00 in
16:52 40.3 °F 36.7 °F 30.10 in Calm     87 % 0.00 in
17:00 40.0 °F 36.4 °F 30.10 in Calm     87 % 0.00 in
17:05 39.9 °F 36.3 °F 30.10 in Calm     87 % 0.00 in
17:11 39.7 °F 35.9 °F 30.10 in Calm     86 % 0.00 in
17:16 39.6 °F 36.0 °F 30.09 in Calm     87 % 0.00 in
17:22 39.5 °F 36.0 °F 30.09 in Calm     87 % 0.00 in
17:32 39.3 °F 35.8 °F 30.09 in Calm     87 % 0.00 in
17:40 39.0 °F 35.5 °F 30.09 in Calm     87 % 0.00 in
17:43 38.9 °F 35.4 °F 30.09 in Calm     87 % 0.00 in
17:48 38.8 °F 35.3 °F 30.09 in Calm     87 % 0.00 in
17:57 38.6 °F 35.1 °F 30.08 in Calm     87 % 0.00 in
18:02 38.4 °F 35.2 °F 30.08 in Calm     88 % 0.00 in
18:07 38.3 °F 35.1 °F 30.08 in Calm     88 % 0.00 in
18:12 38.2 °F 35.0 °F 30.08 in Calm     88 % 0.00 in
18:13 38.2 °F 35.0 °F 30.08 in Calm     88 % 0.00 in
18:18 38.1 °F 35.1 °F 30.08 in Calm     89 % 0.00 in
18:23 38.0 °F 35.0 °F 30.08 in Calm     89 % 0.00 in
18:41 37.6 °F 34.7 °F 30.08 in Calm     89 % 0.00 in
18:51 37.4 °F 34.5 °F 30.07 in Calm     89 % 0.00 in
18:52 37.4 °F 34.5 °F 30.07 in Calm     89 % 0.00 in
19:04 37.2 °F 34.3 °F 30.06 in Calm     89 % 0.00 in
19:10 37.1 °F 34.4 °F 30.06 in Calm     90 % 0.00 in
19:15 37.1 °F 34.7 °F 30.05 in Calm     91 % 0.00 in
19:26 37.2 °F 35.1 °F 30.05 in SSW 1.0 mph 4.0 mph 92 % 0.00 in
19:39 38.7 °F 37.4 °F 30.04 in SSW 2.0 mph 3.5 mph 95 % 0.00 in
19:47 39.5 °F 38.2 °F 30.04 in South 0.3 mph 2.3 mph 95 % 0.00 in
20:05 41.6 °F 40.5 °F 30.03 in SSW 0.2 mph 1.2 mph 96 % 0.00 in
20:13 42.1 °F 41.0 °F 30.04 in SSW 0.9 mph 3.5 mph 96 % 0.00 in
20:21 42.5 °F 41.5 °F 30.03 in Calm   1.0 mph 96 % 0.00 in
20:26 43.0 °F 42.2 °F 30.03 in Calm   3.0 mph 97 % 0.00 in
20:33 42.8 °F 41.7 °F 30.03 in NW 2.1 mph 3.5 mph 96 % 0.00 in
20:44 42.3 °F 41.2 °F 30.02 in Calm     96 % 0.00 in
20:51 42.0 °F 40.9 °F 30.02 in South 2.5 mph 4.6 mph 96 % 0.00 in
20:56 41.8 °F 40.7 °F 30.02 in South 1.0 mph 3.5 mph 96 % 0.00 in
21:03 41.8 °F 40.7 °F 30.02 in South 2.3 mph 3.5 mph 96 % 0.00 in
21:08 42.0 °F 40.9 °F 30.01 in South 1.1 mph 3.5 mph 96 % 0.00 in
21:13 42.4 °F 41.6 °F 30.01 in South 2.2 mph 4.6 mph 97 % 0.00 in
21:18 43.2 °F 42.4 °F 30.01 in South 2.3 mph 3.5 mph 97 % 0.00 in
21:27 43.8 °F 43.0 °F 30.01 in South 1.6 mph 3.5 mph 97 % 0.00 in
21:32 44.2 °F 43.4 °F 30.01 in South 1.3 mph 3.5 mph 97 % 0.00 in
21:41 44.6 °F 43.8 °F 30.00 in South 1.1 mph 3.5 mph 97 % 0.00 in
21:47 44.8 °F 44.0 °F 30.01 in South 0.2 mph 1.2 mph 97 % 0.00 in
21:57 45.1 °F 44.3 °F 30.00 in Calm   1.2 mph 97 % 0.00 in
22:05 44.6 °F 43.8 °F 30.00 in Calm     97 % 0.00 in
22:11 44.1 °F 43.0 °F 30.00 in Calm     96 % 0.00 in
22:16 43.7 °F 42.6 °F 30.00 in Calm     96 % 0.00 in
22:21 43.5 °F 42.4 °F 30.00 in Calm     96 % 0.00 in
22:28 43.2 °F 42.1 °F 29.99 in Calm     96 % 0.00 in
22:37 42.9 °F 41.8 °F 29.98 in Calm     96 % 0.00 in
22:42 42.6 °F 41.5 °F 29.98 in South 0.2 mph 1.2 mph 96 % 0.00 in
22:55 41.9 °F 40.6 °F 29.99 in Calm     95 % 0.00 in
23:04 41.2 °F 39.9 °F 29.99 in WNW 0.4 mph 3.0 mph 95 % 0.00 in
23:09 40.8 °F 39.5 °F 29.99 in WNW 0.9 mph 2.3 mph 95 % 0.00 in
23:22 39.8 °F 38.2 °F 29.98 in Calm     94 % 0.00 in
23:31 39.2 °F 37.6 °F 29.98 in Calm     94 % 0.00 in
23:38 38.7 °F 37.1 °F 29.98 in Calm     94 % 0.00 in
23:45 38.4 °F 36.8 °F 29.98 in Calm     94 % 0.00 in
23:53 38.1 °F 36.5 °F 29.97 in Calm     94 % 0.00 in
Crab Meadow Weather
Compliments of Weather Underground - 2.25 mb

Script developed by  Jim McMurry - jmcmurry@mwt.net Adapted for the template by  Wim van der Kuil - Leuven-Template.eu

Extremes: The heaviest hailstones on record, weighing up to 2.25 pounds were reported to have killed 92 people in the Gopalganj district of Bangladesh on April 14, 1986.